{"data":{"norad_id":53277,"epoch":"2026-05-25T03:01:12.619200Z","epoch_age_seconds":61617,"freshness":"FRESH","line1":"1 53277U 22086AM  26145.12584050 -.00001284  00000+0 -62613-4 0  9993","line2":"2 53277  53.2118 201.0127 0001204  83.4161 276.6968 15.08839185212736","mean_motion":15.08839185,"eccentricity":0.0001204,"inclination_deg":53.2118,"raan_deg":201.0127,"arg_perigee_deg":83.4161,"mean_anomaly_deg":276.6968,"bstar":-6.2613e-5,"rev_number":21273,"period_min":95.437606228393,"perigee_km":538.91296699542,"apogee_km":540.57879319294,"semimajor_km":6917.8828800942,"source":"CELESTRAK","updated_at":"2026-05-25T13:38:17.367299Z"}}